,,Stat5,,Stat1,,Stat2,,Stat3,,Stat4,,Wind1,,Wind1,
time,status,PA1M_AVG,status,PR1M_SUM,status,RH1M_AVG,status,SR1M_AVG,status,TA1M_AVG,status,W1dAve1m,status,W1sAve1m,
2001-04-28, 00:00:00,VALID,917.182,VALID,0,VALID,94.2691,VALID,-0.0339617,VALID,20.498,VALID,84,VALID,0.509252,
2001-04-28, 00:01:00,VALID,917.177,VALID,0,VALID,94.5057,VALID,-0.0339617,VALID,20.5365,VALID,84,VALID,0.54442,
2001-04-28, 00:02:00,VALID,917.197,VALID,0,VALID,94.3759,VALID,-0.0169808,VALID,20.5529,VALID,84,VALID,0.704782,
2001-04-28, 00:03:00,VALID,917.196,VALID,0,VALID,94.3925,VALID,-0.0339617,VALID,20.5171,VALID,78,VALID,0.787829,
2001-04-28, 00:04:00,VALID,917.189,VALID,0,VALID,94.3124,VALID,-0.0339617,VALID,20.4915,VALID,88,VALID,0.79375,
2001-04-28, 00:05:00,VALID,917.177,VALID,0,VALID,94.3645,VALID,-0.0339617,VALID,20.4853,VALID,90,VALID,0.636489,
2001-04-28, 00:06:00,VALID,917.178,VALID,0,VALID,94.3963,VALID,-0.0679233,VALID,20.456,VALID,85,VALID,0.696752,
2001-04-28, 00:07:00,VALID,917.177,VALID,0,VALID,94.512,VALID,-0.0509425,VALID,20.4333,VALID,80,VALID,0.926339,
2001-04-28, 00:08:00,VALID,917.162,VALID,0,VALID,94.5603,VALID,-0.0169808,VALID,20.414,VALID,84,VALID,0.935113,
2001-04-28, 00:09:00,VALID,917.151,VALID,0,VALID,94.7142,VALID,0,VALID,20.3978,VALID,107,VALID,0.367188,
2001-04-28, 00:10:00,VALID,917.14,VALID,0,VALID,94.7676,VALID,-0.0509425,VALID,20.3978,VALID,74,VALID,0.663007,
2001-04-28, 00:11:00,VALID,917.128,VALID,0,VALID,94.6659,VALID,-0.0339617,VALID,20.3946,VALID,73,VALID,1.14545,
2001-04-28, 00:12:00,VALID,917.116,VALID,0,VALID,94.7218,VALID,-0.0679233,VALID,20.3879,VALID,72,VALID,0.902644,
2001-04-28, 00:13:00,VALID,917.118,VALID,0,VALID,94.8579,VALID,-0.0509425,VALID,20.3951,VALID,64,VALID,0.817057,
2001-04-28, 00:14:00,VALID,917.118,VALID,0,VALID,94.8706,VALID,-0.0509425,VALID,20.3816,VALID,64,VALID,1.00574,
2001-04-28, 00:15:00,VALID,917.108,VALID,0,VALID,95.0016,VALID,-0.0509425,VALID,20.3849,VALID,89,VALID,1.33767,
2001-04-28, 00:16:00,VALID,917.117,VALID,0,VALID,95.1529,VALID,0,VALID,20.355,VALID,89,VALID,0.946832,
2001-04-28, 00:17:00,VALID,917.115,VALID,0,VALID,95.219,VALID,-0.0339617,VALID,20.3526,VALID,77,VALID,0.740809,
2001-04-28, 00:18:00,VALID,917.101,VALID,0,VALID,95.2991,VALID,-0.0169808,VALID,20.3491,VALID,75,VALID,0.69109,
2001-04-28, 00:19:00,VALID,917.105,VALID,0,VALID,95.2241,VALID,-0.0169808,VALID,20.3362,VALID,63,VALID,0.632589,
2001-04-28, 00:20:00,VALID,917.084,VALID,0,VALID,95.2623,VALID,-0.0169808,VALID,20.3071,VALID,61,VALID,0.95715,
2001-04-28, 00:21:00,VALID,917.071,VALID,0,VALID,95.4517,VALID,-0.0509425,VALID,20.2917,VALID,47,VALID,0.868454,
2001-04-28, 00:22:00,VALID,917.059,VALID,0,VALID,95.6056,VALID,-0.0339617,VALID,20.2688,VALID,39,VALID,0.624578,
2001-04-28, 00:23:00,VALID,917.056,VALID,0,VALID,95.7556,VALID,-0.0169808,VALID,20.2559,VALID,32,VALID,0.40625,
2001-04-28, 00:24:00,VALID,917.027,VALID,0,VALID,95.9655,VALID,-0.0679233,VALID,20.2621,VALID,66,VALID,0.316406,
2001-04-28, 00:25:00,VALID,917.024,VALID,0,VALID,96.0341,VALID,-0.0169808,VALID,20.2847,VALID,101,VALID,0.465061,
2001-04-28, 00:26:00,VALID,917.025,VALID,0,VALID,96.0112,VALID,-0.0509425,VALID,20.2909,VALID,88,VALID,0.368107,
2001-04-28, 00:27:00,VALID,917.024,VALID,0,VALID,95.9451,VALID,-0.0509425,VALID,20.3044,VALID,91,VALID,0.521326,
2001-04-28, 00:28:00,VALID,917.017,VALID,0,VALID,95.8294,VALID,-0.0169808,VALID,20.3011,VALID,65,VALID,0.624107,
2001-04-28, 00:29:00,VALID,917.016,VALID,0,VALID,95.7391,VALID,-0.0339617,VALID,20.2785,VALID,77,VALID,0.800663,
2001-04-28, 00:30:00,VALID,917.02,VALID,0,VALID,95.5496,VALID,-0.0169808,VALID,20.2559,VALID,52,VALID,0.934755,
2001-04-28, 00:31:00,VALID,917.008,VALID,0,VALID,95.5713,VALID,-0.0169808,VALID,20.2457,VALID,71,VALID,0.650549,
2001-04-28, 00:32:00,VALID,916.991,VALID,0,VALID,95.6081,VALID,-0.0509425,VALID,20.2524,VALID,93,VALID,0.154119,
2001-04-28, 00:33:00,VALID,916.98,VALID,0,VALID,95.6183,VALID,-0.0339617,VALID,20.2653,VALID,93,VALID,0.171441,
2001-04-28, 00:34:00,VALID,916.96,VALID,0,VALID,95.4733,VALID,-0.0169808,VALID,20.2651,VALID,75,VALID,0.472005,
2001-04-28, 00:35:00,VALID,916.923,VALID,0,VALID,95.1987,VALID,-0.0169808,VALID,20.2788,VALID,77,VALID,0.223116,
2001-04-28, 00:36:00,VALID,916.902,VALID,0,VALID,95.0588,VALID,-0.0169808,VALID,20.272,VALID,108,VALID,0.00168919,
2001-04-28, 00:37:00,VALID,916.891,VALID,0,VALID,95.0766,VALID,-0.0339617,VALID,20.2842,VALID,106,VALID,0,
2001-04-28, 00:38:00,VALID,916.883,VALID,0,VALID,95.1682,VALID,-0.0339617,VALID,20.3205,VALID,106,VALID,0,
2001-04-28, 00:39:00,VALID,916.881,VALID,0,VALID,95.1669,VALID,-0.0849042,VALID,20.3148,VALID,106,VALID,0,
2001-04-28, 00:40:00,VALID,916.871,VALID,0,VALID,95.102,VALID,-0.0679233,VALID,20.2914,VALID,100,VALID,0.189611,
2001-04-28, 00:41:00,VALID,916.862,VALID,0,VALID,94.9062,VALID,-0.0339617,VALID,20.2947,VALID,94,VALID,0.859375,
2001-04-28, 00:42:00,VALID,916.838,VALID,0,VALID,94.7511,VALID,-0.0339617,VALID,20.2788,VALID,94,VALID,0.988715,
2001-04-28, 00:43:00,VALID,916.816,VALID,0,VALID,94.7066,VALID,-0.0339617,VALID,20.2726,VALID,89,VALID,0.791667,
2001-04-28, 00:44:00,VALID,916.803,VALID,0,VALID,94.5247,VALID,-0.0509425,VALID,20.2726,VALID,84,VALID,1.27551,
2001-04-28, 00:45:00,VALID,916.787,VALID,0,VALID,94.011,VALID,-0.0509425,VALID,20.2435,VALID,88,VALID,1.63028,
2001-04-28, 00:46:00,VALID,916.768,VALID,0,VALID,94.058,VALID,0,VALID,20.2335,VALID,88,VALID,1.53192,
2001-04-28, 00:47:00,VALID,916.758,VALID,0,VALID,94.114,VALID,-0.0169808,VALID,20.2402,VALID,87,VALID,1.30161,
2001-04-28, 00:48:00,VALID,916.739,VALID,0,VALID,94.1547,VALID,-0.0339617,VALID,20.2273,VALID,88,VALID,1.08805,
2001-04-28, 00:49:00,VALID,916.721,VALID,0,VALID,94.0975,VALID,-0.0169808,VALID,20.2107,VALID,95,VALID,1.33784,
2001-04-28, 00:50:00,VALID,916.703,VALID,0,VALID,94.2297,VALID,-0.0679233,VALID,20.198,VALID,91,VALID,1.01397,
2001-04-28, 00:51:00,VALID,916.679,VALID,0,VALID,94.114,VALID,-0.0339617,VALID,20.1856,VALID,93,VALID,1.05056,
2001-04-28, 00:52:00,VALID,916.669,VALID,0,VALID,93.9919,VALID,-0.0169808,VALID,20.1657,VALID,90,VALID,1.04384,
2001-04-28, 00:53:00,VALID,916.655,VALID,0,VALID,93.8788,VALID,0,VALID,20.1627,VALID,83,VALID,0.897059,
2001-04-28, 00:54:00,VALID,916.647,VALID,0,VALID,93.8851,VALID,-0.0169808,VALID,20.156,VALID,82,VALID,0.57897,
2001-04-28, 00:55:00,VALID,916.634,VALID,0,VALID,93.7071,VALID,-0.0339617,VALID,20.1692,VALID,76,VALID,0.852232,
2001-04-28, 00:56:00,VALID,916.625,VALID,0,VALID,93.7312,VALID,-0.0339617,VALID,20.1498,VALID,76,VALID,0.434896,
2001-04-28, 00:57:00,VALID,916.606,VALID,0,VALID,93.8495,VALID,-0.0339617,VALID,20.1431,VALID,75,VALID,0.401816,
2001-04-28, 00:58:00,VALID,916.592,VALID,0,VALID,93.9894,VALID,-0.0339617,VALID,20.1366,VALID,96,VALID,0.527238,
2001-04-28, 00:59:00,VALID,916.58,VALID,0,VALID,94.0924,VALID,-0.0169808,VALID,20.1331,VALID,98,VALID,0.39607,
2001-04-28, 01:00:00,VALID,916.557,VALID,0,VALID,94.2628,VALID,-0.0169808,VALID,20.1334,VALID,95,VALID,0.153863,
2001-04-28, 01:01:00,VALID,916.552,VALID,0,VALID,94.3442,VALID,0,VALID,20.1267,VALID,92,VALID,0.361328,
2001-04-28, 01:02:00,VALID,916.536,VALID,0,VALID,94.3073,VALID,-0.0339617,VALID,20.1075,VALID,92,VALID,0.329963,
2001-04-28, 01:03:00,VALID,916.524,VALID,0,VALID,94.3238,VALID,-0.0339617,VALID,20.1073,VALID,99,VALID,0.199535,
2001-04-28, 01:04:00,VALID,916.515,VALID,0,VALID,94.3696,VALID,0,VALID,20.0946,VALID,93,VALID,0.273438,
2001-04-28, 01:05:00,VALID,916.519,VALID,0,VALID,94.465,VALID,-0.0339617,VALID,20.0919,VALID,86,VALID,0.430398,
2001-04-28, 01:06:00,VALID,916.517,VALID,0,VALID,94.32,VALID,-0.0339617,VALID,20.0625,VALID,68,VALID,0.597128,
2001-04-28, 01:07:00,VALID,916.506,VALID,0,VALID,93.88,VALID,-0.0509425,VALID,20.0367,VALID,66,VALID,0.530617,
2001-04-28, 01:08:00,VALID,916.476,VALID,0,VALID,94.0364,VALID,0,VALID,20.0459,VALID,89,VALID,0.659091,
2001-04-28, 01:09:00,VALID,916.456,VALID,0,VALID,94.1814,VALID,0.0849042,VALID,20.0516,VALID,81,VALID,0.604818,
2001-04-28, 01:10:00,VALID,916.434,VALID,0,VALID,94.1153,VALID,0.0509425,VALID,20.0322,VALID,55,VALID,0.735026,
2001-04-28, 01:11:00,VALID,916.425,VALID,0,VALID,93.8927,VALID,0.0339617,VALID,20.0161,VALID,65,VALID,0.797794,
2001-04-28, 01:12:00,VALID,916.4,VALID,0,VALID,93.8737,VALID,0.0679233,VALID,19.9991,VALID,87,VALID,0.678843,
2001-04-28, 01:13:00,VALID,916.381,VALID,0,VALID,93.8609,VALID,0.0849042,VALID,20.0161,VALID,77,VALID,0.884821,
2001-04-28, 01:14:00,VALID,916.341,VALID,0,VALID,93.7109,VALID,0.0509425,VALID,19.9932,VALID,93,VALID,0.733428,
2001-04-28, 01:15:00,VALID,916.325,VALID,0,VALID,93.8152,VALID,0.0509425,VALID,19.9907,VALID,79,VALID,0.953758,
2001-04-28, 01:16:00,VALID,916.313,VALID,0,VALID,93.9487,VALID,0.0509425,VALID,19.9708,VALID,92,VALID,0.757179,
2001-04-28, 01:17:00,VALID,916.288,VALID,0,VALID,93.8546,VALID,0.0339617,VALID,19.9649,VALID,67,VALID,1.00616,
2001-04-28, 01:18:00,VALID,916.268,VALID,0,VALID,93.6651,VALID,0.0679233,VALID,19.9385,VALID,54,VALID,0.873698,
2001-04-28, 01:19:00,VALID,916.244,VALID,0,VALID,93.7338,VALID,0.0509425,VALID,19.9321,VALID,53,VALID,1.03342,
2001-04-28, 01:20:00,VALID,916.211,VALID,0,VALID,93.5723,VALID,0.0849042,VALID,19.9323,VALID,50,VALID,0.998621,
2001-04-28, 01:21:00,VALID,916.189,VALID,0,VALID,93.2201,VALID,0.0509425,VALID,19.9383,VALID,66,VALID,0.671242,
2001-04-28, 01:22:00,VALID,916.154,VALID,0,VALID,93.4922,VALID,0.0679233,VALID,19.9509,VALID,92,VALID,0.776339,
2001-04-28, 01:23:00,VALID,916.132,VALID,0,VALID,93.6117,VALID,0.0679233,VALID,19.9609,VALID,92,VALID,0.709754,
2001-04-28, 01:24:00,VALID,916.105,VALID,0,VALID,93.7554,VALID,0.0169808,VALID,19.9711,VALID,83,VALID,0.676943,
2001-04-28, 01:25:00,VALID,916.081,VALID,0,VALID,93.3688,VALID,0.0679233,VALID,19.9579,VALID,107,VALID,0.715583,
2001-04-28, 01:26:00,VALID,916.047,VALID,0,VALID,93.4299,VALID,0.101885,VALID,19.9646,VALID,90,VALID,0.529356,
2001-04-28, 01:27:00,VALID,916.021,VALID,0,VALID,93.5049,VALID,0.101885,VALID,19.9418,VALID,102,VALID,0.758247,
2001-04-28, 01:28:00,VALID,915.998,VALID,0,VALID,93.5621,VALID,0.0679233,VALID,19.9445,VALID,111,VALID,0.737413,
2001-04-28, 01:29:00,VALID,915.956,VALID,0,VALID,93.4057,VALID,0.0509425,VALID,19.935,VALID,112,VALID,0.983686,
2001-04-28, 01:30:00,VALID,915.947,VALID,0,VALID,93.3917,VALID,0.0679233,VALID,19.903,VALID,105,VALID,0.952069,
2001-04-28, 01:31:00,VALID,915.947,VALID,0,VALID,93.6677,VALID,0.0849042,VALID,19.8766,VALID,96,VALID,0.75067,
2001-04-28, 01:32:00,VALID,915.924,VALID,0,VALID,93.777,VALID,0.0679233,VALID,19.8481,VALID,85,VALID,0.78125,
2001-04-28, 01:33:00,VALID,915.919,VALID,0,VALID,93.8431,VALID,0.0849042,VALID,19.8153,VALID,83,VALID,0.805954,
2001-04-28, 01:34:00,VALID,915.875,VALID,0,VALID,93.9741,VALID,0.0679233,VALID,19.7999,VALID,89,VALID,0.66913,
2001-04-28, 01:35:00,VALID,915.866,VALID,0,VALID,94.1191,VALID,0.0849042,VALID,19.7673,VALID,91,VALID,0.729877,
2001-04-28, 01:36:00,VALID,915.843,VALID,0,VALID,94.2068,VALID,0.0679233,VALID,19.7579,VALID,81,VALID,0.890191,
2001-04-28, 01:37:00,VALID,915.835,VALID,0,VALID,94.128,VALID,0.0849042,VALID,19.7377,VALID,98,VALID,0.787326,
2001-04-28, 01:38:00,VALID,915.832,VALID,0,VALID,94.3035,VALID,0.0509425,VALID,19.7184,VALID,101,VALID,0.40579,
2001-04-28, 01:39:00,VALID,915.834,VALID,0,VALID,94.3912,VALID,-0.0339617,VALID,19.7335,VALID,106,VALID,0.462838,
2001-04-28, 01:40:00,VALID,915.822,VALID,0,VALID,94.6036,VALID,-0.0339617,VALID,19.7203,VALID,111,VALID,0.813616,
2001-04-28, 01:41:00,VALID,915.807,VALID,0,VALID,94.6799,VALID,-0.0509425,VALID,19.7134,VALID,124,VALID,1.05563,
2001-04-28, 01:42:00,VALID,915.79,VALID,0,VALID,94.7218,VALID,-0.0509425,VALID,19.7174,VALID,123,VALID,1.19489,
2001-04-28, 01:43:00,VALID,915.769,VALID,0,VALID,94.8134,VALID,-0.0509425,VALID,19.7141,VALID,126,VALID,0.921664,
2001-04-28, 01:44:00,VALID,915.765,VALID,0,VALID,94.9011,VALID,-0.0169808,VALID,19.7104,VALID,129,VALID,0.679924,
2001-04-28, 01:45:00,VALID,915.751,VALID,0,VALID,94.9583,VALID,-0.0339617,VALID,19.7174,VALID,131,VALID,0.457248,
2001-04-28, 01:46:00,VALID,915.745,VALID,0,VALID,94.9329,VALID,-0.0339617,VALID,19.7107,VALID,132,VALID,0.288194,
2001-04-28, 01:47:00,VALID,915.724,VALID,0,VALID,94.9227,VALID,-0.0339617,VALID,19.7176,VALID,132,VALID,0.0165441,
2001-04-28, 01:48:00,VALID,915.723,VALID,0,VALID,94.9291,VALID,-0.0339617,VALID,19.7208,VALID,132,VALID,0,
2001-04-28, 01:49:00,VALID,915.708,VALID,0,VALID,95.0308,VALID,-0.0679233,VALID,19.7079,VALID,144,VALID,0.0390625,
2001-04-28, 01:50:00,VALID,915.694,VALID,0,VALID,95.1135,VALID,-0.0169808,VALID,19.7176,VALID,191,VALID,0.212121,
2001-04-28, 01:51:00,VALID,915.684,VALID,0,VALID,95.3004,VALID,-0.0339617,VALID,19.7044,VALID,219,VALID,0.273226,
2001-04-28, 01:52:00,VALID,915.669,VALID,0,VALID,95.4568,VALID,-0.0679233,VALID,19.7077,VALID,223,VALID,0.15625,
2001-04-28, 01:53:00,VALID,915.661,VALID,0,VALID,95.4606,VALID,-0.0339617,VALID,19.7072,VALID,224,VALID,0,
2001-04-28, 01:54:00,VALID,915.665,VALID,0,VALID,95.4174,VALID,-0.0169808,VALID,19.698,VALID,224,VALID,0.33572,
2001-04-28, 01:55:00,VALID,915.633,VALID,0,VALID,95.6234,VALID,-0.0339617,VALID,19.6719,VALID,216,VALID,0.420573,
2001-04-28, 01:56:00,VALID,915.605,VALID,0,VALID,95.804,VALID,-0.0339617,VALID,19.6726,VALID,194,VALID,0.525965,
2001-04-28, 01:57:00,VALID,915.603,VALID,0,VALID,95.8993,VALID,-0.0339617,VALID,19.6562,VALID,198,VALID,0.468961,
2001-04-28, 01:58:00,VALID,915.592,VALID,0,VALID,95.9286,VALID,0,VALID,19.6232,VALID,196,VALID,0.488839,
2001-04-28, 01:59:00,VALID,915.575,VALID,0,VALID,96.0977,VALID,-0.0339617,VALID,19.5909,VALID,195,VALID,0.507576,
2001-04-28, 02:00:00,VALID,915.558,VALID,0,VALID,96.3482,VALID,-0.0169808,VALID,19.5685,VALID,195,VALID,0.70397,
2001-04-28, 02:01:00,VALID,915.56,VALID,0,VALID,96.6458,VALID,-0.0509425,VALID,19.5529,VALID,214,VALID,0.594172,
2001-04-28, 02:02:00,VALID,915.538,VALID,0,VALID,96.9624,VALID,-0.0339617,VALID,19.5422,VALID,209,VALID,0.602509,
2001-04-28, 02:03:00,VALID,915.533,VALID,0,VALID,97.1188,VALID,-0.0339617,VALID,19.5499,VALID,207,VALID,0.489583,
2001-04-28, 02:04:00,VALID,915.528,VALID,0,VALID,97.1875,VALID,-0.0339617,VALID,19.5432,VALID,201,VALID,0.179036,
2001-04-28, 02:05:00,VALID,915.523,VALID,0,VALID,97.2587,VALID,-0.0849042,VALID,19.5201,VALID,183,VALID,0.163143,
2001-04-28, 02:06:00,VALID,915.514,VALID,0,VALID,97.3108,VALID,-0.0679233,VALID,19.5203,VALID,199,VALID,0.0595439,
2001-04-28, 02:07:00,VALID,915.502,VALID,0,VALID,97.3655,VALID,-0.0509425,VALID,19.5233,VALID,205,VALID,0.0602679,
2001-04-28, 02:08:00,VALID,915.491,VALID,0,VALID,97.4138,VALID,-0.0339617,VALID,19.5302,VALID,205,VALID,0,
2001-04-28, 02:09:00,VALID,915.483,VALID,0,VALID,97.4392,VALID,-0.0509425,VALID,19.5302,VALID,205,VALID,0,
2001-04-28, 02:10:00,VALID,915.47,VALID,0,VALID,97.424,VALID,-0.0679233,VALID,19.5275,VALID,196,VALID,0,
2001-04-28, 02:11:00,VALID,915.471,VALID,0,VALID,97.4825,VALID,-0.0509425,VALID,19.5176,VALID,192,VALID,0,
2001-04-28, 02:12:00,VALID,915.473,VALID,0,VALID,97.5041,VALID,-0.0679233,VALID,19.5238,VALID,187,VALID,0,
2001-04-28, 02:13:00,VALID,915.482,VALID,0,VALID,97.5283,VALID,-0.0679233,VALID,19.5275,VALID,186,VALID,0,
2001-04-28, 02:14:00,VALID,915.471,VALID,0,VALID,97.5283,VALID,-0.0679233,VALID,19.5046,VALID,189,VALID,0,
2001-04-28, 02:15:00,VALID,915.481,VALID,0,VALID,97.6363,VALID,-0.0679233,VALID,19.4885,VALID,192,VALID,0,
2001-04-28, 02:16:00,VALID,915.476,VALID,0,VALID,97.6796,VALID,-0.0849042,VALID,19.5081,VALID,192,VALID,0,
2001-04-28, 02:17:00,VALID,915.466,VALID,0,VALID,97.7063,VALID,-0.0509425,VALID,19.5245,VALID,192,VALID,0,
2001-04-28, 02:18:00,VALID,915.45,VALID,0,VALID,97.7635,VALID,-0.0679233,VALID,19.5141,VALID,192,VALID,0,
2001-04-28, 02:19:00,VALID,915.43,VALID,0,VALID,97.8512,VALID,-0.0509425,VALID,19.5298,VALID,192,VALID,0,
2001-04-28, 02:20:00,VALID,915.414,VALID,0,VALID,97.9046,VALID,-0.0849042,VALID,19.5563,VALID,192,VALID,0,
2001-04-28, 02:21:00,VALID,915.409,VALID,0,VALID,97.9326,VALID,-0.0679233,VALID,19.5561,VALID,204,VALID,0,
2001-04-28, 02:22:00,VALID,915.403,VALID,0,VALID,97.9046,VALID,-0.0679233,VALID,19.5757,VALID,214,VALID,0,
2001-04-28, 02:23:00,VALID,915.381,VALID,0,VALID,97.8894,VALID,-0.0679233,VALID,19.5792,VALID,231,VALID,0,
2001-04-28, 02:24:00,VALID,915.382,VALID,0,VALID,97.897,VALID,-0.0169808,VALID,19.569,VALID,254,VALID,0,
2001-04-28, 02:25:00,VALID,915.372,VALID,0,VALID,97.9161,VALID,-0.0339617,VALID,19.5854,VALID,253,VALID,0,
2001-04-28, 02:26:00,VALID,915.356,VALID,0,VALID,97.9581,VALID,0,VALID,19.5849,VALID,253,VALID,0,
2001-04-28, 02:27:00,VALID,915.34,VALID,0,VALID,97.9759,VALID,-0.0169808,VALID,19.5717,VALID,253,VALID,0,
2001-04-28, 02:28:00,VALID,915.318,VALID,0,VALID,97.953,VALID,-0.0169808,VALID,19.5688,VALID,253,VALID,0,
2001-04-28, 02:29:00,VALID,915.293,VALID,0,VALID,97.9492,VALID,0,VALID,19.5658,VALID,248,VALID,0,
2001-04-28, 02:30:00,VALID,915.284,VALID,0,VALID,97.9797,VALID,-0.0509425,VALID,19.5824,VALID,233,VALID,0,
2001-04-28, 02:31:00,VALID,915.272,VALID,0,VALID,97.9046,VALID,-0.0339617,VALID,19.5789,VALID,223,VALID,0,
2001-04-28, 02:32:00,VALID,915.263,VALID,0,VALID,97.8678,VALID,0,VALID,19.5725,VALID,216,VALID,0.0590533,
2001-04-28, 02:33:00,VALID,915.255,VALID,0,VALID,97.9034,VALID,-0.0679233,VALID,19.5628,VALID,205,VALID,0.463471,
2001-04-28, 02:34:00,VALID,915.24,VALID,0,VALID,97.9555,VALID,-0.0679233,VALID,19.5399,VALID,185,VALID,0.404687,
2001-04-28, 02:35:00,VALID,915.235,VALID,0,VALID,98.0102,VALID,-0.0339617,VALID,19.5307,VALID,185,VALID,0.308949,
2001-04-28, 02:36:00,VALID,915.234,VALID,0,VALID,98.0534,VALID,-0.0169808,VALID,19.5273,VALID,185,VALID,0.0337838,
2001-04-28, 02:37:00,VALID,915.236,VALID,0,VALID,98.0229,VALID,-0.0169808,VALID,19.5049,VALID,185,VALID,0,
2001-04-28, 02:38:00,VALID,915.233,VALID,0,VALID,98.0089,VALID,-0.0339617,VALID,19.4885,VALID,185,VALID,0,
2001-04-28, 02:39:00,VALID,915.232,VALID,0,VALID,97.9873,VALID,-0.0169808,VALID,19.4887,VALID,185,VALID,0,
2001-04-28, 02:40:00,VALID,915.228,VALID,0,VALID,97.9072,VALID,-0.0339617,VALID,19.4756,VALID,152,VALID,0,
2001-04-28, 02:41:00,VALID,915.22,VALID,0,VALID,97.8868,VALID,-0.0169808,VALID,19.482,VALID,147,VALID,0,
2001-04-28, 02:42:00,VALID,915.214,VALID,0,VALID,97.8398,VALID,-0.0509425,VALID,19.4853,VALID,137,VALID,0.157517,
2001-04-28, 02:43:00,VALID,915.197,VALID,0,VALID,97.7622,VALID,-0.0169808,VALID,19.4882,VALID,118,VALID,0.560491,
2001-04-28, 02:44:00,VALID,915.189,VALID,0,VALID,97.6376,VALID,-0.0169808,VALID,19.485,VALID,117,VALID,0.661932,
2001-04-28, 02:45:00,VALID,915.18,VALID,0,VALID,97.4507,VALID,-0.0169808,VALID,19.492,VALID,107,VALID,0.875845,
2001-04-28, 02:46:00,VALID,915.181,VALID,0,VALID,97.2371,VALID,0,VALID,19.4885,VALID,97,VALID,0.827069,
2001-04-28, 02:47:00,VALID,915.178,VALID,0,VALID,96.9891,VALID,-0.0169808,VALID,19.485,VALID,82,VALID,0.750947,
2001-04-28, 02:48:00,VALID,915.182,VALID,0,VALID,96.7182,VALID,-0.0169808,VALID,19.4783,VALID,81,VALID,0.638238,
2001-04-28, 02:49:00,VALID,915.185,VALID,0,VALID,96.4601,VALID,-0.0169808,VALID,19.492,VALID,95,VALID,0.865451,
2001-04-28, 02:50:00,VALID,915.167,VALID,0,VALID,95.9476,VALID,-0.0339617,VALID,19.4622,VALID,90,VALID,1.13189,
2001-04-28, 02:51:00,VALID,915.167,VALID,0,VALID,95.5153,VALID,-0.0509425,VALID,19.479,VALID,86,VALID,0.96685,
2001-04-28, 02:52:00,VALID,915.174,VALID,0,VALID,95.4085,VALID,-0.0169808,VALID,19.4979,VALID,68,VALID,0.583259,
2001-04-28, 02:53:00,VALID,915.186,VALID,0,VALID,95.2534,VALID,-0.0169808,VALID,19.5046,VALID,21,VALID,0.822206,
2001-04-28, 02:54:00,VALID,915.206,VALID,0,VALID,95.2559,VALID,-0.0339617,VALID,19.5143,VALID,30,VALID,0.596073,
2001-04-28, 02:55:00,VALID,915.204,VALID,0,VALID,95.2457,VALID,-0.0169808,VALID,19.5372,VALID,94,VALID,0.301309,
2001-04-28, 02:56:00,VALID,915.206,VALID,0,VALID,95.1643,VALID,-0.0169808,VALID,19.5499,VALID,115,VALID,0.444366,
2001-04-28, 02:57:00,VALID,915.209,VALID,0,VALID,95.1923,VALID,0,VALID,19.566,VALID,107,VALID,0.556207,
2001-04-28, 02:58:00,VALID,915.205,VALID,0,VALID,95.2241,VALID,-0.0169808,VALID,19.5822,VALID,86,VALID,0.582248,
2001-04-28, 02:59:00,VALID,915.22,VALID,0,VALID,95.2317,VALID,0,VALID,19.5919,VALID,90,VALID,0.346507,
2001-04-28, 03:00:00,VALID,915.228,VALID,0,VALID,95.378,VALID,-0.0679233,VALID,19.5857,VALID,333,VALID,0.628167,
2001-04-28, 03:01:00,VALID,915.229,VALID,0,VALID,95.4988,VALID,-0.0509425,VALID,19.5827,VALID,288,VALID,0.23683,
2001-04-28, 03:02:00,VALID,915.222,VALID,0,VALID,95.3258,VALID,-0.0679233,VALID,19.5727,VALID,359,VALID,0.50947,
2001-04-28, 03:03:00,VALID,915.22,VALID,0,VALID,94.4815,VALID,-0.0169808,VALID,19.5822,VALID,18,VALID,0.209248,
2001-04-28, 03:04:00,VALID,915.219,VALID,0,VALID,94.2513,VALID,-0.0169808,VALID,19.6272,VALID,78,VALID,0.465794,
2001-04-28, 03:05:00,VALID,915.213,VALID,0,VALID,94.3098,VALID,-0.0509425,VALID,19.6532,VALID,70,VALID,0.505682,
2001-04-28, 03:06:00,VALID,915.216,VALID,0,VALID,94.3734,VALID,-0.0509425,VALID,19.6629,VALID,81,VALID,0.175564,
2001-04-28, 03:07:00,VALID,915.221,VALID,0,VALID,93.8381,VALID,-0.0679233,VALID,19.6659,VALID,57,VALID,1.03494,
2001-04-28, 03:08:00,VALID,915.214,VALID,0,VALID,93.1018,VALID,-0.0339617,VALID,19.7281,VALID,45,VALID,0.909926,
2001-04-28, 03:09:00,VALID,915.211,VALID,0,VALID,93.2099,VALID,-0.0509425,VALID,19.7566,VALID,20,VALID,0.406883,
2001-04-28, 03:10:00,VALID,915.197,VALID,0,VALID,93.4133,VALID,-0.0169808,VALID,19.7435,VALID,342,VALID,0.331027,
2001-04-28, 03:11:00,VALID,915.183,VALID,0,VALID,93.4744,VALID,-0.0339617,VALID,19.7375,VALID,38,VALID,0.309186,
2001-04-28, 03:12:00,VALID,915.184,VALID,0,VALID,93.6244,VALID,-0.0679233,VALID,19.7437,VALID,313,VALID,0.23902,
2001-04-28, 03:13:00,VALID,915.153,VALID,0,VALID,94.053,VALID,-0.0169808,VALID,19.7502,VALID,305,VALID,0.303843,
2001-04-28, 03:14:00,VALID,915.149,VALID,0,VALID,94.2984,VALID,-0.0679233,VALID,19.7343,VALID,305,VALID,0.0622633,
2001-04-28, 03:15:00,VALID,915.145,VALID,0,VALID,94.4611,VALID,-0.0339617,VALID,19.7211,VALID,305,VALID,0.0368924,
2001-04-28, 03:16:00,VALID,915.132,VALID,0,VALID,94.6748,VALID,0,VALID,19.7246,VALID,5,VALID,0.125434,
2001-04-28, 03:17:00,VALID,915.14,VALID,0,VALID,94.8121,VALID,-0.0509425,VALID,19.7181,VALID,75,VALID,0.116728,
2001-04-28, 03:18:00,VALID,915.143,VALID,0,VALID,94.8706,VALID,-0.0509425,VALID,19.7119,VALID,75,VALID,0,
2001-04-28, 03:19:00,VALID,915.142,VALID,0,VALID,94.863,VALID,-0.0169808,VALID,19.6818,VALID,341,VALID,0.0910714,
2001-04-28, 03:20:00,VALID,915.13,VALID,0,VALID,95.0626,VALID,0,VALID,19.6791,VALID,294,VALID,0.00189394,
2001-04-28, 03:21:00,VALID,915.12,VALID,0,VALID,95.2521,VALID,-0.0169808,VALID,19.6597,VALID,294,VALID,0.134502,
2001-04-28, 03:22:00,VALID,915.107,VALID,0,VALID,95.4594,VALID,0,VALID,19.6532,VALID,294,VALID,0,
2001-04-28, 03:23:00,VALID,915.096,VALID,0,VALID,95.6158,VALID,-0.0169808,VALID,19.6562,VALID,294,VALID,0,
2001-04-28, 03:24:00,VALID,915.082,VALID,0,VALID,95.687,VALID,0.0169808,VALID,19.659,VALID,294,VALID,0,
2001-04-28, 03:25:00,VALID,915.057,VALID,0,VALID,95.6946,VALID,0,VALID,19.6555,VALID,294,VALID,0,
2001-04-28, 03:26:00,VALID,915.055,VALID,0,VALID,95.6539,VALID,0,VALID,19.6458,VALID,294,VALID,0,
2001-04-28, 03:27:00,VALID,915.047,VALID,0,VALID,95.6412,VALID,0,VALID,19.6227,VALID,294,VALID,0,
2001-04-28, 03:28:00,VALID,915.036,VALID,0,VALID,95.6959,VALID,0.0339617,VALID,19.6334,VALID,294,VALID,0,
2001-04-28, 03:29:00,VALID,915.021,VALID,0,VALID,95.7277,VALID,0.0339617,VALID,19.62,VALID,294,VALID,0,
2001-04-28, 03:30:00,VALID,915.009,VALID,0,VALID,95.7633,VALID,0.0169808,VALID,19.6202,VALID,294,VALID,0,
2001-04-28, 03:31:00,VALID,914.997,VALID,0,VALID,95.8408,VALID,0.0169808,VALID,19.5872,VALID,294,VALID,0,
2001-04-28, 03:32:00,VALID,915,VALID,0,VALID,95.8637,VALID,0,VALID,19.6008,VALID,294,VALID,0,